Location: Croissy-Beaubourg
(48.8283°N, 2.6696°E)
Time: 02:47:53
(UTC+00:00)

Cosmos 2082 - Pass Details

Date: 20 August 2022
Orbit: 832 x 856 km, 71.0° (Epoch: 29 September)

Event Time Altitude Azimuth Distance (km) Brightness Sun altitude
Rises 01:07:17 0° 335° (NNW) 3,407 7.5 -26.5°
Reaches altitude 10° 01:10:18 10° 351° (N) 2,473 6.9 -26.3°
Maximum altitude 01:14:41 22° 42° (NE) 1,760 6.0 -26.1°
Drops below altitude 10° 01:19:04 10° 92° (E) 2,477 6.4 -25.8°
Sets 01:22:05 0° 108° (ESE) 3,413 6.9 -25.6°
